Zurück zum Katalog

JILIN-1 GAOFEN 07B 01 XING

AktivWissenschaftSSO
NORAD 66993·PAYLOAD·🇨🇳 China
Dieser Satellitenname wurde noch nicht durch offizielle Quellen bestätigt.

Gestartet Dec 10, 2025 von Jiuquan Satellite Launch Center

Loading…

Nächste Überflüge (nächste 24 Stunden)

TLE

AktuellSource: Space-Track

Epoche: Sep 14, 2026, 10:37 UTC

1 66993U 25292A   26257.44240383  .00002862  00000-0  19553-3 0  9997
2 66993  97.6239 332.2897 0015918  58.4220 301.8559 15.06869773 41884

Verfolge JILIN-1 GAOFEN 07B 01 XING in Echtzeit mit AllMySat

Download on the App Store